TimeMDT,TemperatureF,Dew PointF,Humidity,Sea Level PressureIn,VisibilityMPH,Wind Direction,Wind SpeedMPH,Gust SpeedMPH,PrecipitationIn,Events,Conditions,WindDirDegrees,DateUTC
12:53 AM,37.0,28.0,70,30.08,10.0,Calm,Calm,-,N/A,,Clear,0,2013-10-03 06:53:00
1:53 AM,43.0,30.9,62,30.07,10.0,North,12.7,-,N/A,,Clear,10,2013-10-03 07:53:00
2:53 AM,44.1,33.1,65,30.07,10.0,NNE,12.7,-,N/A,,Clear,20,2013-10-03 08:53:00
3:53 AM,43.0,33.1,68,30.09,10.0,East,5.8,-,N/A,,Clear,90,2013-10-03 09:53:00
4:53 AM,42.1,33.1,70,30.10,10.0,ENE,5.8,-,N/A,,Clear,60,2013-10-03 10:53:00
5:53 AM,41.0,32.0,70,30.12,10.0,NE,8.1,-,N/A,,Clear,40,2013-10-03 11:53:00
6:53 AM,39.9,32.0,73,30.14,10.0,NNE,15.0,-,N/A,,Clear,30,2013-10-03 12:53:00
7:53 AM,39.9,32.0,73,30.15,10.0,NNE,13.8,-,N/A,,Clear,30,2013-10-03 13:53:00
8:53 AM,42.1,34.0,73,30.17,10.0,NNE,16.1,24.2,N/A,,Mostly Cloudy,30,2013-10-03 14:53:00
9:53 AM,43.0,34.0,71,30.20,10.0,NNE,13.8,-,N/A,,Mostly Cloudy,30,2013-10-03 15:53:00
10:53 AM,45.0,34.0,65,30.21,10.0,NE,17.3,-,N/A,,Overcast,40,2013-10-03 16:53:00
11:53 AM,46.9,34.0,61,30.22,10.0,NNE,16.1,21.9,N/A,,Overcast,20,2013-10-03 17:53:00
12:27 PM,46.4,33.8,62,30.17,10.0,NNE,13.8,-,N/A,,Overcast,30,2013-10-03 18:27:00
12:53 PM,46.9,33.1,59,30.22,10.0,NNE,12.7,-,N/A,,Overcast,30,2013-10-03 18:53:00
1:07 PM,48.2,33.8,58,30.16,10.0,NNE,13.8,-,N/A,,Overcast,30,2013-10-03 19:07:00
1:53 PM,48.9,33.1,54,30.21,10.0,NNE,15.0,20.7,N/A,,Overcast,20,2013-10-03 19:53:00
2:53 PM,48.9,33.1,54,30.22,10.0,NNE,15.0,-,N/A,,Overcast,30,2013-10-03 20:53:00
3:53 PM,48.9,33.1,54,30.24,10.0,NNE,11.5,-,N/A,,Overcast,30,2013-10-03 21:53:00
4:53 PM,48.9,32.0,52,30.26,10.0,NE,12.7,-,N/A,,Overcast,40,2013-10-03 22:53:00
5:53 PM,48.0,32.0,54,30.28,10.0,NE,10.4,-,N/A,,Mostly Cloudy,40,2013-10-03 23:53:00
6:53 PM,46.0,32.0,58,30.31,10.0,NE,6.9,-,N/A,,Overcast,40,2013-10-04 00:53:00
7:53 PM,42.1,28.0,58,30.35,10.0,North,9.2,-,N/A,,Overcast,10,2013-10-04 01:53:00
8:53 PM,39.9,27.0,60,30.37,10.0,North,10.4,-,N/A,,Clear,360,2013-10-04 02:53:00
10:53 PM,39.0,28.0,65,30.39,10.0,North,9.2,-,N/A,,Clear,360,2013-10-04 04:53:00
11:53 PM,37.0,28.0,70,30.40,10.0,Calm,Calm,-,N/A,,Clear,0,2013-10-04 05:53:00